Temperature
23 22 22 22 20 20 23 24 24 24 24 24 24 23 22 21 21 20 20 20 20 20 20 20 20 20 20 20 20 20 20 20 20 20 20 20 20 20 20 20 20 20 20 20 20 19 19 19 19
23 23 23 22 20 21 23 24 24 24 25 24 24 23 22 21 20 19 19 20 20 21 20 20 20 20 20 20 20 20 20 20 20 20 20 20 20 20 20 20 20 20 20 20 19 19 19 19 19
24 23 23 20 21 22 23 24 24 25 25 24 23 22 22 21 21 20 20 20 20 20 20 20 20 20 20 20 20 20 20 20 20 20 20 20 20 20 20 20 20 20 20 20 19 19 19 19 19
24 23 23 21 22 23 23 23 24 24 24 23 22 21 21 21 21 21 20 20 21 21 20 20 20 21 21 20 20 20 20 20 20 20 20 20 20 20 20 20 20 20 20 20 19 19 19 19 19
24 24 21 21 22 22 22 23 24 23 23 22 21 21 20 21 21 20 20 21 21 21 20 21 21 21 21 21 20 20 20 20 20 20 20 20 20 20 20 20 20 20 20 20 19 19 19 19 19
25 22 21 21 22 22 21 22 22 22 21 21 21 20 19 20 20 20 20 20 20 20 20 20 20 20 20 20 20 20 20 20 20 20 20 19 19 19 19 19 20 20 19 19 19 19 19 19 19
24 21 21 21 21 21 21 21 21 20 20 19 20 20 19 19 19 20 20 20 20 20 19 19 19 20 20 20 20 20 20 20 20 20 19 19 19 19 19 19 19 19 19 19 19 19 19 19 19
26 21 21 21 20 20 21 21 20 19 19 18 19 18 18 18 19 19 19 19 19 19 19 19 19 19 19 19 19 19 19 19 19 19 19 19 19 19 19 19 19 19 19 19 19 19 19 19 19
26 20 20 21 20 20 20 21 19 18 18 17 17 17 17 18 18 19 19 19 18 18 18 19 19 19 19 19 19 19 19 19 19 19 19 19 19 19 19 19 19 19 19 19 19 19 19 19 18
24 20 21 21 20 19 19 19 19 17 17 17 17 18 18 18 19 19 18 18 18 18 18 18 18 18 19 19 19 18 18 18 19 19 19 19 19 19 19 18 18 18 19 19 19 19 19 19 18
23 21 21 21 20 20 18 17 18 17 16 17 17 17 18 18 18 18 18 17 17 17 17 17 18 18 18 18 18 18 18 18 18 18 18 18 19 19 18 18 18 18 18 19 19 19 19 19 18
22 21 21 21 21 20 19 18 17 17 17 17 18 18 18 18 17 17 17 17 17 17 17 17 17 17 17 18 18 18 18 18 18 18 18 18 18 18 18 18 18 18 18 18 19 19 19 18 18
21 21 20 20 19 19 18 17 17 17 17 18 18 18 18 17 17 17 17 17 17 17 17 17 17 17 17 17 17 17 17 18 18 18 18 18 18 18 18 18 18 18 18 18 18 18 18 18 18
22 21 20 20 19 19 18 18 18 17 18 18 18 18 17 17 17 17 16 16 16 16 16 16 16 16 16 17 17 17 17 17 18 18 18 18 18 18 18 18 18 18 18 18 18 18 18 18 18
22 21 20 20 19 19 19 17 17 18 18 18 18 17 17 17 16 16 16 16 16 15 15 15 15 15 16 16 16 16 17 17 17 17 17 18 18 18 18 18 18 18 18 18 18 18 18 18 18
22 20 20 20 20 19 18 16 18 18 18 17 17 17 17 16 16 16 16 15 15 15 15 15 15 15 15 15 16 16 16 16 17 17 17 17 17 17 18 18 18 18 18 18 18 18 18 18 18
21 20 20 20 20 19 17 16 17 18 18 17 17 17 16 16 16 15 15 15 15 14 14 14 14 14 15 15 15 15 15 16 16 16 16 17 17 17 17 17 18 18 18 18 18 18 18 18 19
22 21 20 20 20 18 17 16 17 18 17 17 17 16 16 16 15 15 15 15 14 14 14 14 14 14 14 14 14 15 15 15 15 16 16 16 16 17 17 17 17 17 17 18 18 18 18 18 18
22 21 20 20 20 18 16 16 16 17 17 16 16 16 16 15 15 15 15 14 14 14 14 13 13 13 13 14 14 14 14 15 15 15 15 16 16 16 16 17 17 17 17 17 18 18 18 18 18
21 19 19 20 21 18 16 16 16 17 17 16 16 16 16 15 15 15 14 14 14 13 13 13 13 13 13 13 13 13 14 14 14 15 15 15 15 16 16 16 16 17 17 17 17 17 17 17 18
20 20 20 20 20 18 16 16 16 16 16 16 16 16 15 15 15 14 14 14 14 13 13 13 13 13 13 13 13 13 14 14 14 14 15 15 15 15 16 16 16 16 16 17 17 17 17 17 17
20 21 21 20 18 17 17 15 15 15 15 15 15 15 15 15 15 14 14 14 13 13 13 13 12 12 12 13 13 13 13 13 13 14 14 14 15 15 15 15 16 16 16 16 17 17 17 17 17
20 21 21 20 19 17 17 15 14 15 15 15 15 15 15 15 15 14 14 14 13 13 13 12 12 12 12 12 12 12 13 13 13 13 14 14 14 15 15 15 15 15 16 16 16 16 16 16 17
21 19 18 16 15 16 17 15 14 13 15 15 15 15 15 15 15 14 14 14 13 13 13 12 12 12 12 12 12 12 12 12 13 13 13 14 14 14 14 15 15 15 15 16 16 16 16 16 16
19 16 15 16 15 16 17 16 14 15 15 15 15 15 15 15 15 14 14 14 13 13 13 12 12 12 12 12 12 12 12 12 12 12 13 13 13 14 14 14 15 15 15 15 15 16 16 16 16
19 16 16 16 16 15 16 16 14 16 16 16 16 16 15 15 15 14 14 14 13 13 13 12 12 12 12 12 12 12 12 12 12 12 12 13 13 13 14 14 14 15 15 15 15 15 16 16 16
19 17 16 15 16 16 15 15 15 16 15 16 16 16 15 15 15 15 14 14 13 13 13 12 12 12 12 11 12 12 12 12 12 12 12 12 13 13 13 14 14 14 14 15 15 15 15 15 16
19 18 15 15 16 15 16 16 14 14 14 15 15 16 16 15 15 15 14 14 13 13 13 12 12 12 11 11 11 11 11 12 12 12 12 12 12 13 13 13 13 14 14 14 14 15 15 15 15
19 18 15 13 14 15 15 14 15 14 14 14 15 16 16 16 15 15 14 14 14 13 13 12 12 12 12 11 11 11 11 11 11 12 12 12 12 12 12 13 13 13 14 14 14 14 15 15 15
19 18 15 15 15 14 13 14 16 15 15 16 16 16 16 16 15 15 15 14 14 13 13 13 12 12 12 11 11 11 11 11 11 11 11 12 12 12 12 12 12 13 13 13 14 14 14 14 15
Wind_Speed
8 6 3 1 4 5 4 3 4 7 6 9 12 11 9 7 5 6 3 12 14 11 12 14 14 14 14 13 12 11 11 10 10 9 9 9 8 8 7 7 7 7 6 6 7 7 7 7 6
5 4 2 3 5 5 3 3 8 7 8 9 11 11 9 7 7 8 6 11 14 13 13 12 13 13 13 12 12 11 10 10 9 9 9 8 8 7 7 7 6 6 6 6 6 6 6 6 5
4 3 2 4 4 5 4 4 10 10 9 7 6 7 6 4 5 5 9 14 13 12 13 13 14 13 12 12 11 11 10 10 9 9 8 8 7 6 6 6 6 6 5 5 5 5 5 4 3
3 3 4 5 6 2 4 4 9 8 9 9 7 7 5 5 3 8 15 14 14 12 14 15 15 13 12 12 11 11 10 10 9 8 8 7 7 6 6 6 6 5 5 5 4 4 4 3 2
3 5 6 5 5 5 7 9 12 12 7 10 11 7 5 8 9 13 13 14 14 11 14 15 16 15 13 12 12 11 10 10 9 9 8 8 7 6 6 6 6 5 5 4 4 4 4 3 2
4 5 5 4 5 5 6 8 12 14 11 8 7 6 4 7 8 7 8 8 9 11 12 14 16 15 14 13 13 12 11 11 10 10 9 8 8 7 7 6 6 6 5 5 5 4 4 5 4
5 5 3 3 4 4 3 5 8 7 8 7 5 4 3 8 8 7 8 7 6 5 5 6 10 13 14 14 14 13 13 12 12 11 10 10 9 9 8 7 7 7 6 6 6 5 6 6 6
5 5 4 2 4 2 5 4 7 9 6 6 6 5 3 5 6 8 10 10 9 7 5 3 1 4 9 13 14 15 15 14 13 13 12 12 11 10 10 9 9 9 8 8 7 7 7 7 7
5 5 3 3 5 2 3 3 5 7 9 8 8 7 4 5 7 9 9 9 8 7 5 5 4 4 3 7 12 15 15 15 15 14 14 13 12 11 11 11 11 11 11 10 9 9 9 8 8
5 4 3 2 5 5 5 6 6 6 8 7 7 8 8 8 10 10 9 8 7 6 5 4 4 4 4 3 6 10 12 13 14 14 14 13 13 13 12 13 14 14 13 12 11 11 10 9 8
5 5 4 4 6 6 6 6 5 5 7 4 3 4 6 9 9 9 8 6 5 4 4 4 3 5 5 4 4 3 6 8 10 12 14 13 12 11 11 10 12 14 14 11 11 11 9 8 8
7 6 5 5 5 5 5 5 6 6 4 1 1 2 5 7 7 7 6 5 4 5 5 5 3 3 4 4 4 3 3 4 6 10 13 11 7 7 7 7 9 10 10 9 9 8 9 9 10
6 6 9 13 15 12 13 9 7 3 2 1 1 3 5 5 5 5 5 6 6 6 6 5 5 4 3 3 4 4 4 4 6 8 11 12 7 6 6 6 8 9 10 9 7 7 7 7 8
8 10 11 11 12 7 12 7 5 1 1 1 2 3 4 4 5 5 6 6 6 6 7 6 6 5 4 3 3 3 5 5 5 7 9 10 10 7 5 5 5 7 9 10 8 8 6 6 6
10 9 7 4 7 6 9 8 2 2 3 3 3 4 4 4 5 4 4 5 5 5 6 7 7 5 5 5 5 4 5 6 5 6 8 9 9 8 6 6 6 6 8 9 8 8 6 6 6
5 5 3 4 6 6 7 4 2 3 5 3 4 4 4 4 4 4 5 5 6 6 6 7 8 7 7 6 5 5 6 6 6 7 7 8 8 8 6 6 6 7 7 5 5 5 5 5 5
3 2 3 2 4 4 5 4 3 3 6 5 4 4 4 5 5 5 5 5 5 6 6 7 7 7 7 7 6 5 5 5 6 6 6 7 7 8 6 5 5 7 5 5 6 5 5 5 5
2 2 2 3 3 6 6 5 4 3 6 5 4 4 5 5 4 5 5 5 5 6 6 7 7 7 7 6 5 4 5 5 5 5 6 7 7 7 6 4 5 5 5 6 5 4 4 3 4
3 4 4 3 4 5 7 7 5 3 5 5 4 4 4 4 4 5 6 6 6 7 7 7 7 8 6 5 4 4 5 5 5 4 6 7 7 7 5 5 5 6 6 7 7 5 4 3 3
9 8 4 1 3 5 6 4 3 3 4 4 4 3 2 4 5 6 6 6 6 7 7 7 8 8 7 5 5 4 5 5 5 4 4 6 6 6 5 6 6 6 6 6 7 5 4 4 4
7 5 4 3 1 4 7 2 2 1 2 3 3 2 1 3 3 5 6 6 6 7 7 8 8 8 8 7 5 5 4 4 3 4 4 4 6 6 5 6 6 7 7 7 8 7 7 5 4
1 1 2 2 2 2 6 4 5 4 1 1 1 0 2 3 3 4 5 6 7 7 7 7 7 7 8 7 6 6 4 4 5 4 5 6 5 5 6 6 6 7 7 7 8 8 6 6 5
4 3 1 1 2 1 0 4 4 3 3 2 2 1 2 3 3 4 5 5 6 6 7 7 7 7 8 7 7 6 5 5 5 5 6 6 5 5 5 5 6 7 7 7 7 7 7 6 6
1 5 7 6 5 2 4 5 5 4 5 3 2 2 3 3 3 4 5 5 6 6 6 7 7 8 8 8 8 7 7 7 7 7 6 5 5 5 5 5 5 6 6 7 8 8 8 8 7
7 6 5 5 4 5 1 3 5 5 5 5 4 4 4 3 3 4 6 6 7 7 7 7 7 8 8 9 8 8 7 7 7 6 6 5 4 4 5 5 4 4 5 6 7 8 8 9 8
1 7 6 3 3 5 3 2 5 4 5 4 4 4 3 3 4 4 5 5 6 6 6 6 7 7 8 8 9 8 7 5 5 5 5 4 4 4 5 5 4 3 4 5 6 6 8 8 8
2 1 6 6 1 2 3 2 3 2 3 3 3 3 3 4 4 4 5 5 5 5 6 6 6 6 8 8 8 8 8 7 6 6 5 4 4 4 4 4 3 2 2 3 3 4 6 7 8
1 3 5 3 1 3 5 4 5 7 6 5 4 4 4 4 4 4 4 5 4 4 4 4 4 5 6 7 7 6 8 7 7 6 7 7 7 6 6 5 4 3 2 1 2 3 4 5 6
3 3 4 3 4 3 4 7 6 9 8 7 6 6 6 6 5 4 5 5 4 4 4 3 5 5 5 7 6 7 8 8 8 7 7 7 7 8 8 6 5 5 4 2 1 2 3 5 5
3 4 5 3 1 2 3 7 4 8 8 7 7 7 5 5 5 5 4 4 3 4 4 3 3 4 4 5 6 7 7 7 8 8 8 8 7 7 7 7 6 6 6 5 3 1 1 3 4
Wind_Direction
184 166 133 117 58 55 70 37 74 67 62 63 70 77 79 56 80 127 137 145 138 146 151 149 147 144 143 143 143 141 139 138 137 136 133 130 126 122 118 114 110 107 103 101 102 103 103 98 87
152 140 141 64 83 77 47 54 74 84 121 106 72 72 74 69 80 99 117 142 141 145 149 151 150 147 145 145 145 145 144 142 142 141 139 136 133 131 128 124 120 118 115 112 112 109 109 107 97
145 158 104 66 92 121 119 88 91 78 71 77 74 50 54 72 86 117 149 146 143 146 150 153 153 151 150 150 149 149 149 149 148 148 147 145 143 143 140 135 132 130 127 125 125 122 119 115 105
122 72 50 67 80 67 106 106 94 82 54 48 84 60 43 35 70 134 148 150 147 150 154 158 158 157 157 157 157 156 156 157 157 158 160 159 158 155 153 151 147 144 142 141 141 140 137 133 126
79 73 57 56 58 42 46 62 75 75 69 66 79 85 49 18 83 130 150 154 152 156 162 166 165 166 166 167 167 168 169 170 171 171 173 173 172 171 168 167 163 161 163 163 163 164 166 170 177
68 67 73 74 62 54 34 39 71 80 85 67 67 87 64 33 62 104 130 143 152 158 165 172 174 175 177 178 179 180 181 183 184 185 185 186 187 187 185 183 178 177 181 183 183 188 194 200 209
107 96 104 117 82 44 34 47 49 66 63 28 11 77 62 24 30 63 79 86 89 114 139 168 186 188 189 190 192 193 193 194 195 195 195 196 197 197 197 196 193 191 193 197 201 207 213 217 223
121 101 94 95 101 41 338 42 52 40 48 25 30 61 36 355 19 63 68 61 60 58 50 35 334 219 211 207 206 205 204 203 203 203 203 202 204 205 207 208 206 205 207 209 211 216 222 227 233
89 80 118 169 155 152 346 66 68 55 65 56 54 58 45 23 42 55 56 50 43 40 34 30 17 356 298 243 226 220 215 212 211 210 209 208 208 211 215 216 215 216 215 216 218 221 226 232 239
78 108 174 164 144 128 67 55 83 67 51 41 40 36 35 40 45 49 49 44 38 25 16 18 3 345 337 297 257 237 228 222 216 214 214 212 209 213 220 225 224 222 220 220 223 226 231 236 242
87 127 128 96 123 127 97 61 41 102 57 34 40 23 29 42 41 42 39 36 29 16 7 0 352 351 349 331 317 263 241 234 226 222 220 218 213 214 223 227 231 227 223 221 227 230 233 235 238
91 73 104 108 114 92 91 97 68 62 122 177 111 61 46 44 39 36 31 18 7 8 357 348 338 335 336 339 324 300 276 251 238 233 226 218 214 214 216 215 216 212 212 210 220 224 231 236 241
105 113 92 98 94 92 94 93 98 85 146 135 81 61 55 49 37 29 23 19 9 0 347 337 333 327 322 324 320 321 298 275 263 253 237 219 211 211 209 209 209 210 211 210 216 221 225 234 240
126 118 119 117 108 99 98 89 86 141 164 96 74 56 53 46 35 27 18 11 2 354 343 335 326 318 322 306 293 290 291 290 284 266 254 234 220 213 202 200 204 209 213 218 221 223 219 226 229
111 108 105 121 114 134 107 64 71 178 119 63 52 57 53 45 42 31 8 357 349 343 341 339 330 325 320 309 300 299 289 287 278 270 264 250 235 220 207 203 201 204 207 218 227 231 227 230 228
83 97 137 182 147 151 105 107 255 157 116 78 56 56 52 35 34 20 11 5 357 350 342 333 339 334 318 304 296 295 293 286 280 276 271 262 253 238 217 209 205 197 193 205 217 217 217 229 220
64 149 195 161 153 127 109 151 222 143 117 94 72 58 51 29 15 8 10 9 359 352 346 341 335 333 324 313 299 293 293 288 282 277 271 266 260 248 229 219 211 195 186 197 217 208 200 211 212
255 231 172 156 127 108 119 154 176 142 114 102 78 58 45 33 3 352 359 1 357 352 349 341 336 333 329 321 313 304 300 293 288 279 271 267 260 252 237 229 221 199 194 196 200 203 203 200 196
106 105 115 134 138 119 141 154 173 148 107 97 78 56 39 9 341 352 352 353 353 349 346 339 335 329 333 328 319 308 302 297 294 282 279 274 261 251 237 235 224 207 203 205 196 191 198 202 174
79 89 87 109 153 121 136 148 177 159 139 137 120 92 36 353 348 347 350 352 348 338 335 335 336 330 329 319 300 275 275 277 274 281 291 284 273 258 245 228 220 213 207 205 201 191 185 197 177
73 111 157 202 93 94 115 98 195 191 124 119 124 127 14 358 341 333 338 339 337 334 332 334 328 328 326 325 319 314 307 302 308 307 299 289 282 265 250 235 225 217 207 207 205 197 190 196 197
133 191 167 155 114 228 160 181 226 200 173 168 174 29 342 327 319 321 327 331 329 323 324 324 323 326 327 329 331 325 320 303 286 287 287 292 290 274 256 242 231 225 220 213 210 202 196 189 194
222 258 288 181 158 304 151 144 250 191 212 238 228 236 296 304 308 314 315 314 313 320 326 322 325 328 328 330 331 325 317 299 294 295 298 300 297 287 269 247 235 230 224 219 213 205 200 197 193
10 23 24 46 70 327 246 160 236 223 207 210 227 250 283 296 306 312 314 312 314 321 330 330 334 328 328 331 330 326 319 316 316 314 313 310 302 295 285 260 242 233 225 219 214 207 205 205 198
56 65 31 10 8 263 248 134 235 221 193 187 199 235 270 280 294 306 317 319 321 323 326 329 332 326 327 333 332 326 320 317 312 309 307 309 308 303 301 283 256 240 231 222 214 207 209 205 198
29 129 141 186 242 286 352 225 252 210 192 184 196 221 260 287 290 299 302 308 317 318 320 325 330 328 331 337 335 333 332 329 324 319 315 311 303 297 308 305 282 258 239 226 210 209 211 206 203
60 111 172 146 269 316 298 295 306 209 213 213 221 237 265 275 291 292 298 305 313 317 316 317 325 331 334 336 336 341 346 348 344 341 340 335 330 329 337 333 317 303 259 232 206 209 212 205 205
129 132 73 85 71 316 297 251 233 212 220 219 222 238 262 269 288 292 294 293 299 307 313 323 328 330 330 338 345 353 350 354 354 359 1 358 357 359 0 359 355 345 341 280 213 205 207 199 201
31 53 83 112 149 159 285 274 221 196 198 200 215 229 246 252 260 268 277 286 296 312 320 326 332 340 343 345 349 356 357 1 7 10 5 3 8 9 9 9 8 6 7 360 336 221 201 198 196
147 145 132 133 270 178 209 270 237 185 190 194 211 232 246 245 240 248 265 287 302 304 307 317 327 341 342 349 359 1 0 6 11 10 6 6 11 11 11 11 15 14 16 16 13 331 236 201 196
Height
1536 1535 1536 1537 1540 1548 1549 1541 1534 1532 1533 1534 1532 1533 1537 1541 1544 1552 1549 1549 1552 1553 1554 1556 1557 1558 1559 1559 1560 1561 1561 1562 1562 1562 1563 1563 1563 1563 1563 1563 1563 1563 1563 1563 1563 1563 1564 1564 1564
1536 1536 1537 1538 1546 1559 1553 1540 1537 1534 1535 1534 1535 1537 1539 1543 1545 1547 1548 1551 1553 1553 1555 1556 1557 1558 1559 1559 1560 1560 1561 1561 1562 1562 1562 1562 1563 1563 1563 1563 1563 1563 1563 1563 1563 1563 1563 1564 1564
1536 1536 1538 1540 1549 1555 1551 1540 1537 1536 1536 1534 1538 1540 1543 1547 1548 1549 1550 1552 1553 1554 1555 1556 1557 1558 1558 1559 1559 1560 1560 1561 1561 1561 1562 1562 1562 1562 1562 1562 1562 1562 1562 1562 1563 1563 1563 1563 1564
1536 1538 1539 1545 1550 1546 1543 1539 1536 1536 1538 1539 1540 1545 1548 1550 1550 1550 1552 1553 1554 1555 1556 1556 1557 1558 1558 1559 1559 1559 1560 1560 1560 1561 1561 1561 1562 1562 1562 1562 1562 1562 1562 1562 1562 1562 1563 1563 1564
1536 1537 1545 1552 1550 1547 1544 1540 1537 1539 1542 1545 1543 1549 1551 1552 1552 1552 1553 1554 1555 1555 1556 1557 1557 1557 1558 1558 1559 1559 1559 1559 1560 1560 1560 1561 1561 1561 1561 1561 1561 1561 1561 1561 1561 1562 1562 1563 1563
1536 1540 1554 1560 1554 1549 1547 1545 1543 1545 1547 1549 1549 1551 1555 1555 1554 1554 1554 1555 1556 1556 1556 1557 1557 1557 1558 1558 1558 1558 1558 1559 1559 1559 1559 1560 1560 1560 1560 1561 1561 1561 1560 1560 1561 1561 1561 1562 1563
1537 1544 1554 1557 1556 1553 1550 1548 1549 1550 1550 1551 1551 1553 1556 1556 1556 1555 1555 1555 1555 1556 1556 1556 1557 1557 1557 1557 1557 1557 1557 1557 1558 1558 1558 1558 1558 1559 1559 1559 1559 1559 1559 1560 1560 1560 1560 1561 1562
1536 1543 1553 1556 1558 1557 1552 1550 1553 1553 1554 1554 1554 1555 1558 1558 1557 1556 1555 1555 1555 1555 1555 1555 1555 1555 1556 1556 1556 1556 1556 1556 1556 1556 1556 1556 1557 1557 1558 1558 1558 1558 1558 1558 1559 1559 1559 1560 1561
1536 1548 1557 1555 1556 1556 1553 1553 1556 1558 1557 1557 1558 1559 1560 1559 1558 1556 1555 1555 1555 1555 1554 1554 1554 1553 1553 1553 1553 1554 1554 1554 1554 1554 1554 1554 1555 1555 1556 1556 1557 1557 1557 1557 1557 1558 1558 1559 1560
1537 1551 1552 1549 1551 1554 1554 1555 1558 1560 1560 1560 1561 1561 1560 1559 1558 1556 1555 1555 1555 1554 1554 1553 1552 1552 1551 1551 1551 1551 1551 1551 1551 1552 1552 1552 1552 1553 1553 1554 1555 1555 1555 1556 1556 1557 1557 1558 1559
1538 1547 1548 1549 1552 1553 1555 1558 1559 1561 1563 1564 1563 1562 1561 1560 1558 1557 1556 1556 1555 1554 1553 1552 1551 1550 1549 1548 1548 1547 1548 1548 1548 1549 1549 1549 1549 1550 1551 1551 1552 1553 1554 1554 1555 1555 1556 1557 1558
1541 1546 1547 1550 1552 1554 1556 1559 1562 1562 1565 1565 1564 1563 1562 1561 1559 1558 1557 1556 1555 1553 1552 1550 1549 1547 1546 1545 1545 1544 1544 1544 1545 1545 1545 1546 1546 1546 1547 1548 1549 1550 1551 1552 1553 1554 1555 1556 1557
1542 1548 1550 1552 1553 1556 1558 1561 1563 1565 1565 1565 1564 1563 1562 1561 1560 1559 1558 1556 1554 1553 1551 1549 1547 1545 1544 1542 1542 1541 1541 1541 1541 1541 1541 1542 1542 1543 1544 1545 1546 1547 1549 1550 1551 1552 1553 1555 1556
1541 1547 1552 1554 1554 1558 1559 1563 1564 1566 1566 1565 1564 1564 1563 1562 1560 1559 1557 1555 1553 1551 1549 1547 1545 1543 1541 1539 1538 1537 1537 1536 1536 1536 1537 1538 1538 1539 1540 1541 1542 1544 1545 1547 1549 1550 1552 1553 1554
1543 1549 1554 1555 1555 1559 1559 1566 1566 1566 1566 1565 1564 1564 1563 1562 1560 1559 1557 1555 1552 1549 1547 1545 1542 1540 1538 1536 1535 1534 1533 1532 1532 1532 1533 1533 1534 1535 1536 1537 1538 1539 1541 1544 1545 1547 1549 1550 1552
1545 1552 1558 1555 1555 1558 1562 1572 1566 1565 1565 1565 1564 1564 1563 1562 1560 1558 1556 1553 1551 1548 1545 1542 1539 1537 1534 1532 1531 1529 1528 1528 1527 1527 1528 1528 1529 1530 1531 1532 1534 1535 1537 1539 1541 1543 1545 1547 1549
1551 1559 1559 1556 1554 1556 1562 1569 1566 1565 1565 1565 1564 1564 1563 1561 1560 1557 1555 1552 1549 1546 1543 1539 1536 1534 1531 1529 1527 1525 1524 1523 1523 1522 1523 1523 1524 1525 1526 1528 1529 1531 1533 1535 1537 1539 1541 1543 1545
1556 1557 1558 1558 1555 1557 1563 1567 1565 1565 1565 1565 1564 1564 1562 1561 1559 1556 1554 1550 1547 1544 1540 1537 1533 1530 1527 1525 1523 1521 1520 1519 1518 1518 1518 1518 1519 1520 1521 1522 1524 1526 1527 1530 1532 1535 1537 1539 1542
1547 1553 1558 1557 1554 1559 1564 1567 1566 1565 1565 1565 1565 1563 1562 1560 1558 1555 1552 1549 1545 1541 1538 1534 1530 1527 1524 1521 1519 1517 1515 1514 1514 1513 1513 1513 1513 1514 1516 1517 1519 1521 1522 1524 1527 1530 1532 1535 1538
1549 1557 1560 1556 1553 1559 1567 1569 1567 1566 1566 1565 1564 1563 1561 1559 1557 1554 1551 1547 1543 1539 1535 1531 1528 1524 1521 1518 1516 1514 1512 1510 1509 1509 1509 1508 1508 1509 1510 1511 1513 1515 1517 1519 1522 1524 1527 1530 1533
1554 1557 1558 1559 1556 1559 1568 1574 1570 1568 1566 1566 1564 1563 1561 1558 1556 1553 1549 1546 1542 1538 1534 1530 1526 1523 1519 1516 1513 1511 1509 1507 1506 1505 1504 1504 1504 1504 1505 1506 1507 1509 1512 1514 1516 1519 1521 1524 1528
1557 1550 1551 1554 1563 1570 1567 1583 1574 1569 1567 1566 1564 1562 1560 1558 1555 1552 1548 1545 1541 1537 1533 1529 1525 1521 1518 1514 1511 1508 1505 1503 1502 1501 1499 1499 1499 1499 1499 1500 1501 1503 1505 1508 1511 1513 1515 1519 1522
1551 1548 1550 1553 1560 1567 1567 1578 1577 1569 1568 1566 1563 1561 1559 1557 1554 1551 1548 1544 1540 1537 1532 1528 1524 1520 1517 1513 1509 1506 1503 1501 1499 1497 1496 1495 1494 1494 1494 1495 1496 1497 1500 1502 1505 1507 1510 1513 1516
1547 1551 1555 1561 1568 1577 1567 1575 1577 1571 1565 1563 1562 1560 1558 1556 1553 1550 1547 1544 1540 1536 1532 1528 1524 1520 1516 1512 1508 1505 1502 1499 1496 1494 1492 1491 1490 1490 1490 1490 1491 1492 1494 1496 1499 1502 1504 1507 1510
1553 1567 1580 1581 1587 1581 1565 1570 1572 1563 1560 1560 1560 1559 1557 1555 1552 1549 1546 1543 1539 1535 1532 1528 1524 1520 1516 1512 1508 1504 1500 1497 1494 1492 1490 1488 1487 1487 1486 1486 1487 1487 1489 1491 1493 1496 1499 1502 1504
1555 1565 1582 1588 1588 1581 1568 1571 1568 1559 1559 1559 1558 1557 1556 1554 1551 1548 1546 1542 1539 1535 1532 1528 1524 1520 1516 1512 1508 1503 1500 1496 1493 1491 1488 1487 1485 1484 1484 1483 1483 1483 1484 1486 1487 1489 1492 1496 1499
1556 1562 1564 1576 1576 1580 1576 1570 1564 1560 1559 1558 1557 1556 1554 1552 1550 1548 1545 1542 1539 1535 1532 1528 1524 1520 1516 1512 1508 1504 1500 1496 1493 1490 1488 1486 1484 1482 1481 1480 1480 1480 1481 1482 1483 1485 1488 1491 1493
1553 1557 1568 1575 1582 1587 1577 1572 1572 1562 1559 1557 1556 1554 1553 1551 1549 1547 1544 1541 1538 1535 1532 1528 1525 1521 1517 1513 1509 1505 1501 1497 1494 1491 1488 1486 1483 1481 1480 1478 1478 1478 1478 1479 1480 1481 1483 1485 1488
1557 1559 1567 1576 1579 1587 1589 1578 1556 1556 1555 1555 1554 1553 1551 1550 1548 1546 1544 1541 1538 1535 1532 1529 1525 1521 1517 1514 1510 1506 1502 1499 1495 1492 1489 1486 1483 1481 1479 1478 1477 1476 1476 1477 1477 1478 1479 1481 1483
1553 1557 1565 1576 1577 1580 1586 1577 1550 1550 1551 1552 1552 1551 1549 1548 1547 1545 1543 1541 1538 1535 1532 1529 1526 1522 1518 1515 1511 1507 1503 1500 1496 1493 1490 1487 1484 1482 1480 1478 1476 1475 1475 1475 1475 1475 1476 1478 1479